Regional Weather Roundup
Issued by NWS

Home | Current Version | Previous Version | Graphics & Text | Print | Product List | Glossary On
Versions: 1 2 3 4 5 6 7 8 9 10 11 12 13 14 15 16 17 18 19 20 21 22 23 24 25 26 27 28 29 30 31 32 33 34 35 36 37 38 39 40 41 42 43 44 45 46 47 48 49 50
000
ASUS45 KABQ 302110
RWRNM
WEATHER ROUNDUP FOR NEW MEXICO
NATIONAL WEATHER SERVICE ALBUQUERQUE NM
300 PM MDT TUE SEP 30 2014

NOTE: "FAIR" MEANS FEW OR NO CLOUDS BELOW 12,000 FEET AGL WITH NO
       SIGNIFICANT WEATHER OR OBSTRUCTIONS TO VISION.

      THIS PRODUCT IS RELEASED AS TWO VERSIONS.  ONE VERSION NEAR
      THE TOP OF THE HOUR CONTAINING PRELIMINARY DATA FROM ALBUQUERQUE
      AND OTHER STATIONS.  A FINAL VERSION WITH ADDITIONAL DATA IS
      ISSUED ABOUT 10 MINUTES AFTER THE HOUR.

NMZ501-503-504-510>518-302200-
NORTHWEST PLATEAU/NORTHCENTRAL MOUNTAINS

CITY           SKY/WX    TMP DP  RH WIND       PRES   REMARKS
FARMINGTON     MOSUNNY   67  34  29 N10G17    29.98F
LOS ALAMOS     SUNNY     62  32  32 NE7       30.01F
SANTA FE       SUNNY     70  29  21 SW23G32   29.95F
TAOS           SUNNY     64  34  32 W24G30    29.99F
ANGEL FIRE     FAIR      57  31  36 W14G29    30.05F

$$
NMZ402-403-502-505>509-302200-
WESTCENTRAL MOUNTAINS/SOUTHWEST MOUNTAINS

CITY           SKY/WX    TMP DP  RH WIND       PRES   REMARKS
GALLUP         SUNNY     66  35  31 SW12G20   30.03F
GRANTS         SUNNY     72  28  20 NW9       30.02F
SILVER CITY    SUNNY     73  25  16 W14G21    30.00F

$$
NMZ407-409-411-412-302200-
SOUTHERN DESERTS

CITY           SKY/WX    TMP DP  RH WIND       PRES   REMARKS
LORDSBURG      FAIR      79  34  19 MISG      29.93F
DEMING         SUNNY     80  39  23 W18G25    29.92F
LAS CRUCES     SUNNY     80  34  18 W17G23    29.92F
HOLLOMAN AFB   MOSUNNY   81  30  15 W7        29.87F
ALAMOGORDO     MOSUNNY   81  36  19 SW10      29.90F
T OR C         SUNNY     78  34  20 S10G20    29.90F

$$
NMZ519>523-302200-
CENTRAL VALLEYS/CENTRAL HIGHLANDS

CITY           SKY/WX    TMP DP  RH WIND       PRES   REMARKS
ALBUQUERQUE    MOSUNNY   74  31  20 NW13      29.95F
DOUBLE EAGLE   MOSUNNY   72  32  23 S7G17     29.98F
MORIARTY ARPT  FAIR      70  28  21 W16G23    29.99S
CLINES CORNERS SUNNY     67  28  23 W22G29    29.99F
BELEN          FAIR      73  32  21 CALM      29.93F
SOCORRO        FAIR      75  36  24 E6        29.92F

$$
NMZ524>526-539-540-302200-
SOUTHCENTRAL MOUNTAINS

CITY           SKY/WX    TMP DP  RH WIND       PRES   REMARKS
RUIDOSO        NOT AVBL

$$
NMZ527>531-302200-
NORTHEAST HIGHLANDS/NORTHEAST PLAINS

CITY           SKY/WX    TMP DP  RH WIND       PRES   REMARKS
LAS VEGAS      SUNNY     71  30  21 W7        29.91F
RATON          SUNNY     72  27  18 MISG      29.85F
CLAYTON        SUNNY     74  37  26 S13       29.82F

$$
NMZ532>537-302200-
EASTCENTRAL PLAINS

CITY           SKY/WX    TMP DP  RH WIND       PRES   REMARKS
TUCUMCARI      SUNNY     82  34  17 W17G26    29.79F
CANNON AFB     SUNNY     80  40  24 W13G22    29.85F
CLOVIS AIRPORT   N/A     81  41  24 W20G25    29.87F

$$
NMZ028-029-538-302200-
SOUTHEAST PLAINS

CITY           SKY/WX    TMP DP  RH WIND       PRES   REMARKS
ROSWELL        SUNNY     82  47  29 SE8       29.82F
CARLSBAD       SUNNY     88  48  25 W10G20    29.80F
HOBBS          SUNNY     82  50  32 SW16G22   29.85F


$$



USA.gov is the U.S. government's official web portal to all federal, state and local government web resources and services.